Content
SEND FEEDBACK

Daily
Averages
Monthly
Summary
Canada

QUEBEC CITY, QUEBEC


Home > North America > Canada > Quebec
Elevation: 72 meters     Latitude: 46 48N     Longitude: 071 23W

WEATHER
 
SELECT A DAY
Number of Records: 192,115;   Date Range: 6/30/96 - 7/30/14
 
SHARE

PRINT THIS DATA

[ ← Previous Day ]
WEATHER ALMANAC - 22 DECEMBER, 2013
[ Next Day → ]
[ °F ]   °C
Weather ElementAverageHighLow
Temperature-9.4 °C-7 °C (1:00 am)-11 °C (2:33 pm)
Dewpoint-11.9 °C-9.4 °C (1:00 am)-14 °C (12:00 pm)
Humidity81.4 %86 % (5:00 am)73 % (12:00 pm)
Barometer1018.6 hPa1021 hPa (1:00 am)1015.2 hPa (2:33 pm)
Wind Speed36 km/h55.5 km/h (5:00 pm)
Wind Gust79.7 km/h (5:00 pm)
Weather ElementAverage
Visibility3.5 km
Wind DirectionENE (62.8 °)

Weather ElementTotal
Precipitation---
Heating Degree Days27.3 (Base 18.3)
Averaged from 46 records on 22 December, 2013
WEATHER CONDITIONS BREAKOUT
WIND DIRECTION BREAKOUT
WEATHER BY HOUR - 22 DECEMBER, 2013
[ °F ]   °C
Local TimeTemperatureDewpointHumidityBarometerVisibilityWind DirectionWind SpeedGust SpeedPrecipitationEventsConditions
1:00 AM-7.2 °C-9.4 °C79 %1021 hPaENE (70°)13 km/h
1:00 AM-7 °C-10 °C80 %1021 hPa24.1 kmENE (70°)14.8 km/hOvercast
2:00 AM-7 °C-10 °C80 %1020.3 hPa24.1 kmENE (60°)20.4 km/h35.2 km/hSnowLight Snow
3:00 AM-7 °C-10 °C80 %1020.3 hPa24.1 kmENE (60°)25.9 km/h37 km/hSnowLight Snow
4:00 AM-7 °C-10 °C80 %1020.3 hPa3.2 kmENE (60°)29.6 km/hSnowLight Snow
4:00 AM-7.2 °C-9.4 °C78 %1020 hPaENE (70°)18.5 km/h
5:00 AM-8 °C-10 °C86 %1020 hPa1.6 kmENE (60°)31.5 km/h48.1 km/hSnowLight Snow
6:00 AM-9 °C-11 °C86 %1019.6 hPa1.3 kmENE (70°)25.9 km/h44.4 km/hSnowLight Snow
6:23 AM-9 °C-11 °C86 %1019.3 hPa0.8 kmENE (60°)27.8 km/h48.1 km/hSnowSnow
6:45 AM-9 °C-11 °C86 %1019.3 hPa0.6 kmENE (60°)31.5 km/h53.8 km/hSnowSnow
7:00 AM-9 °C-11 °C86 %1019.3 hPa0.8 kmENE (60°)35.2 km/h59.2 km/hSnowSnow
7:00 AM-8.9 °C-10.6 °C85 %1019 hPaENE (70°)25.9 km/h
7:19 AM-9 °C-11 °C86 %1019 hPa0.6 kmENE (60°)40.7 km/h57.5 km/hSnowSnow
7:23 AM-9 °C-11 °C86 %1019.3 hPa0.3 kmENE (60°)33.3 km/h57.5 km/hSnowHeavy Snow
7:39 AM-9 °C-12 °C79 %1019.6 hPa0.6 kmENE (70°)35.2 km/h53.8 km/hSnowSnow
7:44 AM-10 °C-12 °C86 %1020 hPa0.3 kmENE (60°)46.3 km/h61.2 km/hSnowHeavy Snow
8:00 AM-10 °C-12 °C86 %1020 hPa0.3 kmENE (60°)38.9 km/h57.5 km/hSnowSnow
9:00 AM-10 °C-12 °C86 %1020.7 hPa0.3 kmENE (60°)42.6 km/h61.2 km/hSnowSnow
9:26 AM-10 °C-12 °C86 %1020.7 hPa1.3 kmENE (60°)33.3 km/h50.1 km/hSnowHeavy Snow
9:44 AM-10 °C-12 °C86 %1020 hPa0.8 kmENE (60°)46.3 km/h64.9 km/hSnowLight Snow
10:00 AM-10 °C-11.7 °C84 %1020 hPaENE (60°)27.8 km/h
10:00 AM-10 °C-13 °C79 %1020.3 hPa1.3 kmENE (60°)44.4 km/h61.2 km/hSnowLight Snow
10:19 AM-10 °C-13 °C79 %1020.3 hPa1.6 kmENE (60°)37 km/h53.8 km/hSnowLight Snow
11:00 AM-10 °C-13 °C79 %1020 hPa2.4 kmENE (60°)48.1 km/h66.6 km/hSnowLight Snow
12:00 PM-10 °C-14 °C73 %1018.3 hPa2.4 kmENE (60°)46.3 km/h70.3 km/hSnowLight Snow
12:39 PM-10 °C-13 °C79 %1017.3 hPa1.6 kmENE (60°)37 km/h59.2 km/hSnowLight Snow
1:00 PM-10 °C-11.7 °C80 %1016.9 hPaENE (70°)25.9 km/h
1:00 PM-10 °C-13 °C79 %1016.9 hPa1.6 kmENE (60°)44.4 km/h61.2 km/hSnowLight Ice Pellets
1:27 PM-10 °C-13 °C79 %1016.6 hPa2.4 kmENE (70°)40.7 km/h59.2 km/hSnowLight Ice Pellets
1:50 PM-10 °C-13 °C79 %1015.6 hPa2.4 kmENE (60°)40.7 km/h62.9 km/hSnowLight Freezing Drizzle
2:00 PM-10 °C-13 °C79 %1015.6 hPa2.4 kmENE (60°)44.4 km/h72.3 km/hSnowLight Ice Pellets
2:33 PM-11 °C-14 °C79 %1015.2 hPa1.6 kmENE (60°)46.3 km/h74 km/hSnowLight Freezing Drizzle
3:00 PM-11 °C-14 °C79 %1015.9 hPa1.3 kmENE (60°)46.3 km/h76 km/hSnowLight Freezing Drizzle
4:00 PM-10.6 °C-12.2 °C84 %1016.9 hPaENE (70°)25.9 km/h
4:00 PM-11 °C-13 °C85 %1016.9 hPa1.3 kmENE (60°)46.3 km/h64.9 km/hSnowLight Ice Pellets
5:00 PM-11 °C-14 °C79 %1016.9 hPa1 kmENE (70°)55.5 km/h79.7 km/hSnowLight Ice Pellets
6:00 PM-11 °C-14 °C79 %1016.9 hPa1.9 kmENE (60°)44.4 km/h70.3 km/hSnowLight Ice Pellets
7:00 PM-10 °C-11.7 °C80 %1017.6 hPaENE (70°)29.6 km/h
7:00 PM-10 °C-13 °C79 %1017.9 hPa1.9 kmENE (60°)48.1 km/h76 km/hSnowLight Snow
7:24 PM-10 °C-13 °C79 %1017.9 hPa1.6 kmENE (60°)44.4 km/h68.6 km/hSnowLight Ice Pellets
8:00 PM-10 °C-12 °C86 %1017.6 hPa3.2 kmENE (60°)42.6 km/h55.5 km/hSnowLight Snow
9:00 PM-9 °C-12 °C79 %1017.9 hPa1.9 kmENE (60°)40.7 km/h55.5 km/hSnowLight Snow
9:28 PM-9 °C-12 °C79 %1017.9 hPa4.8 kmENE (70°)37 km/h53.8 km/hSnowLight Snow
10:00 PM-8.9 °C-11.1 °C78 %1017.9 hPaENE (60°)24.1 km/h
10:00 PM-9 °C-12 °C79 %1017.9 hPa4.8 kmENE (70°)31.5 km/h53.8 km/hSnowLight Snow
11:00 PM-9 °C-12 °C79 %1018.3 hPa4.8 kmENE (60°)40.7 km/h51.8 km/hSnowLight Snow
Hourly data recorded from CYQB, located 0 kilometers away from Quebec City, Quebec







STORIES FROM OUR PARTNERS